FW7671 Weather Reports


time (UTC)temp
C
wind
direction
speed
KPH
gust
KPH
rain 1hr
cm
rain 24hr
cm
rain mn
cm
humidity
%
barometer
mb
20260902100026 25 105 1.6 4.8 0.00 0.00 0.00 97 1017.4
20260902094541 25 136 0.0 1.6 0.00 0.00 0.00 97 1017.4
20260902093115 25 136 0.0 1.6 0.00 0.00 0.00 97 1017.2
20260902091516 25 136 0.0 0.0 0.00 0.00 0.00 97 1017.3
20260902090029 25 136 0.0 0.0 0.00 0.00 0.00 97 1017.1
20260902084540 25 136 0.0 0.0 0.00 0.00 0.00 97 1017.0
20260902083106 25 136 0.0 1.6 0.00 0.00 0.00 97 1016.9
20260902081620 25 136 0.0 0.0 0.00 0.00 0.00 97 1016.9
20260902080020 25 136 0.0 0.0 0.00 0.00 0.00 97 1017.2
20260902074533 25 136 0.0 0.0 0.00 0.00 0.00 97 1017.2
20260902073043 25 136 0.0 0.0 0.00 0.00 0.00 96 1017.4
20260902071626 26 136 0.0 1.6 0.00 0.00 0.00 97 1017.2
20260902070007 26 137 0.0 1.6 0.00 0.00 0.00 97 1017.4
20260902064525 26 137 0.0 4.8 0.00 0.00 0.00 96 1017.3
20260902063108 26 137 0.0 1.6 0.00 0.00 0.00 96 1017.5
20260902061501 26 137 0.0 1.6 0.00 0.00 0.00 95 1017.7
20260902060018 26 137 0.0 0.0 0.00 0.00 0.00 95 1017.7
20260902054542 26 137 0.0 0.0 0.00 0.00 0.00 95 1017.7
20260902053104 26 137 0.0 1.6 0.00 0.00 0.00 95 1017.8
20260902051518 26 137 1.6 4.8 0.00 0.00 0.00 95 1017.5
20260902050034 26 141 0.0 4.8 0.00 0.00 0.00 95 1017.7
20260902044550 26 117 0.0 4.8 0.00 0.00 0.00 94 1017.5
20260902043008 26 125 0.0 6.4 0.00 0.00 0.00 94 1017.5
20260902041526 26 117 3.2 6.4 0.00 0.00 0.00 94 1017.8
20260902040042 26 96 3.2 6.4 0.00 0.00 0.00 93 1017.9
20260902034503 26 94 4.8 9.7 0.00 0.00 0.00 93 1018.0
20260902033007 26 99 3.2 9.7 0.00 0.00 0.00 92 1018.0
20260902031537 26 113 1.6 4.8 0.00 0.00 0.00 92 1018.0
20260902030048 26 132 3.2 11.3 0.00 0.00 0.00 92 1018.1
20260902024607 26 127 4.8 8.0 0.00 0.00 0.00 92 1018.0
20260902023012 26 125 4.8 9.7 0.00 0.00 0.00 92 1017.9
20260902021541 26 117 3.2 6.4 0.00 0.00 0.00 92 1017.8
20260902020055 26 110 0.0 6.4 0.00 0.00 0.00 92 1017.6
20260902014604 27 107 3.2 6.4 0.00 0.00 0.00 92 1017.5
20260902013014 27 155 0.0 8.0 0.00 0.00 0.00 92 1017.1
20260902011536 27 155 1.6 4.8 0.00 0.00 0.00 92 1017.1
20260902010045 27 92 1.6 4.8 0.00 0.00 0.00 91 1017.1
20260902004602 27 80 1.6 6.4 0.00 0.00 0.00 91 1016.9
20260902003019 27 92 3.2 9.7 0.00 0.00 0.00 90 1016.8
20260902001530 27 107 3.2 12.9 0.00 0.00 0.00 89 1016.7
20260902000045 27 97 3.2 14.5 0.00 0.00 0.00 88 1016.8
20260901234606 28 121 11.3 16.1 0.00 0.00 0.00 87 1016.7
20260901233014 28 128 8.0 16.1 0.00 0.00 0.00 86 1016.8
20260901231534 28 109 8.0 12.9 0.00 0.00 0.00 87 1016.8
20260901230055 28 138 6.4 11.3 0.00 0.00 0.00 87 1017.0
20260901224506 28 109 6.4 11.3 0.00 0.00 0.00 87 1017.2
20260901223016 28 117 6.4 12.9 0.00 0.00 0.00 87 1017.0
20260901221558 28 102 8.0 14.5 0.00 0.00 0.00 86 1017.0
20260901220050 27 88 6.4 11.3 0.00 0.00 0.00 87 1016.9
20260901214508 27 88 4.8 14.5 0.00 0.00 0.00 87 1017.2
20260901213029 27 94 6.4 11.3 0.00 0.00 0.00 88 1017.3
20260901211549 27 111 8.0 12.9 0.00 0.00 0.00 88 1017.1
20260901210012 26 93 0.0 4.8 0.00 0.00 0.00 91 1017.2
20260901204533 26 61 3.2 4.8 0.00 0.00 0.00 91 1017.3
20260901203148 26 48 0.0 4.8 0.00 0.00 0.00 92 1017.6
20260901201557 26 76 3.2 9.7 0.00 0.00 0.00 92 1017.8
20260901200005 26 53 4.8 8.0 0.00 0.00 0.00 93 1017.8
20260901194521 26 44 8.0 16.1 0.00 0.00 0.00 92 1018.4
20260901193039 26 33 4.8 8.0 0.00 0.00 0.00 92 1018.5
20260901191549 26 36 4.8 9.7 0.00 0.00 0.00 92 1018.7
20260901190002 26 19 6.4 20.9 0.00 0.00 0.00 91 1018.5
20260901184513 26 21 4.8 8.0 0.00 0.00 0.00 90 1018.7
20260901183034 26 331 3.2 9.7 0.00 0.00 0.00 90 1018.6
20260901181553 26 212 0.0 8.0 0.00 0.00 0.00 90 1018.7
20260901180006 26 239 0.0 8.0 0.00 0.00 0.00 90 1018.8
20260901174521 27 183 6.4 16.1 0.00 0.00 0.00 87 1018.8
20260901173040 31 225 14.5 20.9 0.00 0.00 0.00 76 1018.7
20260901171505 31 97 11.3 20.9 0.00 0.00 0.00 79 1018.1
20260901170033 30 159 4.8 9.7 0.00 0.00 0.00 87 1018.3
20260901164553 29 128 1.6 11.3 0.00 0.00 0.00 86 1018.7
20260901163010 30 156 6.4 19.3 0.00 0.00 0.00 82 1018.6
20260901161536 30 120 6.4 14.5 0.00 0.00 0.00 79 1018.5
20260901160046 31 98 4.8 19.3 0.00 0.00 0.00 78 1018.5
20260901154541 30 103 11.3 17.7 0.00 0.00 0.00 79 1018.4
20260901153057 31 118 11.3 17.7 0.00 0.00 0.00 79 1018.7
20260901151508 30 110 12.9 20.9 0.00 0.00 0.00 81 1018.6
20260901150029 30 99 12.9 22.5 0.00 0.00 0.00 83 1018.4
20260901144552 30 99 6.4 16.1 0.00 0.00 0.00 85 1018.4
20260901143015 29 98 12.9 20.9 0.00 0.00 0.00 84 1018.4
20260901141546 30 99 9.7 20.9 0.00 0.00 0.00 84 1018.3
20260901134631 28 115 12.9 19.3 0.00 0.00 0.00 87 1018.4
20260901133016 28 93 9.7 19.3 0.00 0.00 0.00 88 1018.1
20260901131521 28 98 8.0 12.9 0.00 0.00 0.00 89 1018.2
20260901130045 27 98 6.4 14.5 0.00 0.00 0.00 90 1018.2
20260901124608 27 111 4.8 12.9 0.00 0.00 0.00 91 1018.0
20260901123022 27 71 6.4 14.5 0.00 0.00 0.00 91 1017.8
20260901121538 26 101 4.8 9.7 0.00 0.00 0.00 92 1017.7
20260901114510 26 96 8.0 11.3 0.00 0.00 0.00 93 1017.5
20260901113041 26 81 4.8 11.3 0.00 0.00 0.00 94 1017.3
20260901111540 26 73 3.2 11.3 0.00 0.00 0.00 94 1017.0
20260901110002 26 96 4.8 12.9 0.00 0.00 0.00 94 1016.8
20260901104529 26 87 4.8 14.5 0.00 0.00 0.00 94 1016.6
20260901103039 26 98 4.8 12.9 0.00 0.00 0.00 94 1016.4
20260901101615 26 84 3.2 8.0 0.00 0.00 0.00 93 1016.5